www.pogodaiklimat.ru

Погода и климат >> Архив погоды >> Россия >> Якутия >> Усть-Нера


ПОГОДА в Усть-Нере

  • Прогноз погоды в Усть-Нере
  • Монитор погоды в Усть-Нере
  • Климат города

АРХИВ ПОГОДЫ в Усть-Нере

Время (UTC), дата Ветер
(напр.,м/с)
 
Видим.   Явления Облачность Т
(С)
Тd
(С)
f
(%)
Тe
(С)
Тes
(С)
Комфортность P
(гПа)
Po
(гПа)
Тmin
(С)
Tmax
(С)
R
(мм)
R24
(мм)
S
(см)
09 19.09 ЮВ 2 50 км 10/6 1500 м
[Sc Ac und]
+7.3 -2.1 51 +6 +6 1008.6 947.1 +8.9
12 19.09 В 3 10 км 10/8 1500 м
[Sc Ac und]
+6.4 -2.4 53 +4 +4 1009.5 947.7
15 19.09 В 3 10 км 10/10 1500 м
[Sc]
+5.7 -2.6 55 +3 +3 1010.2 948.3
18 19.09 В 4 10 км 10/10 1500 м
[Sc]
+5.3 -2.8 56 +2 +2 1010.4 948.4
21 19.09 В 4 50 км 10/6 1500 м
[Sc Ac und]
+5.4 -3.1 54 +2 +2 1010.5 948.5 +5.0
00 20.09 В 4 50 км 10/5 1500 м
[Sc Ac und]
+6.1 -3.5 50 +3 +3 1010.9 949.0
03 20.09 В 5 50 км 10/5 1500 м
[Sc Ac und]
+7.7 -4.1 43 +5 +5 1010.0 948.5
06 20.09 СВ 3 50 км 10/5 1500 м
[Sc Ac und]
+8.4 -4.6 39 +6 +7 1009.7 948.4
09 20.09 В 4 50 км 10/4 1500 м
[Sc Ac und]
+6.3 -3.6 49 +3 +3 1011.2 949.4 +8.7
12 20.09 В 4 10 км 10/5 1500 м
[Sc Ac und]
+4.8 -1.8 62 +1 +1 1012.4 950.2
15 20.09 В 3 10 км 10/8 1500 м
[Sc Ac und]
+4.0 -1.5 67 +1 +1 1012.7 950.2
18 20.09 В 3 10 км 10/10 1500 м
[Sc]
+3.1 -1.3 73 -1 -1 1013.1 950.4
21 20.09 СВ 3 20 км в посл. час дождь 10/8 1320 м
[Sc As op]
+1.6 0.0 89 -3 -3 1013.7 950.6 +1.6 0.1
00 21.09 В 3 20 км {дождь} 10/4 1000 м
[Sc As op]
+3.0 +0.9 86 -1 -1 1013.8 951.0
03 21.09 СВ 3 20 км 10/5 1000 м
[Sc As op]
+5.8 -0.5 64 +3 +3 1012.7 950.6
06 21.09 штиль 0 20 км 10/5 1000 м
[Sc As op]
+6.7 -1.9 54 +6 +7 1012.1 950.2
09 21.09 В 1 20 км 10/6 1410 м
[Sc As op]
+5.0 +0.3 72 +4 +4 1013.3 951.0 +6.9
12 21.09 С 2 10 км слабый дождь 10/8 1380 м
[Sc As op]
+1.9 +1.1 94 -2 -2 1014.6 951.5
15 21.09 З 1 10 км {дождь} 9/6 1410 м
[Sc Ac trans]
-0.7 -1.0 98 -3 -3 1015.1 951.5
18 21.09 З 1 10 км {дождь} 10/5 1000 м
[Sc Ac und]
-1.5 -1.8 98 -4 -4 1015.2 951.4
21 21.09 штиль 0 20 км 9/6 1320 м
[Sc Ac trans]
-1.0 -1.3 98 -2 -2 1015.0 951.3 -1.8 0.4
00 22.09 З 3 20 км {ливн. осадки} 9/5 1000 м
[Cb cap Ac trans]
+1.7 +0.9 94 -3 -2 1014.2 951.2
03 22.09 ЮЗ 3 50 км 6/6 1410 м
[Cb cap]
+5.6 -4.3 49 +3 +4 1012.3 950.2
06 22.09 ЮЗ 2 50 км в посл. час ливневой дождь 8/8 1500 м
[Cb cap]
+4.6 -5.0 50 +3 +3 1011.1 948.8
09 22.09 З 5
{12}
50 км 10/5 1500 м
[Sc As op]
+4.3 -7.6 42 0 0 1010.9 948.5 +7.5 0.5
12 22.09 З 4 10 км 10/8 1440 м
[Sc As op]
+2.3 -3.3 66 -2 -2 1011.9 949.2
15 22.09 З 5 10 км слабый дождь со снегом 10/9 1380 м
[Sc As op]
+0.1 -1.0 92 -6 -6 1011.5 948.4
18 22.09 З 3 10 км {снег} 10/6 1440 м
[Sc Ac und]
-0.2 -1.1 94 -5 -5 1011.0 947.7
21 22.09 штиль 0 50 км 9/1 1500 м
[Sc Ci fib]
-2.4 -3.0 96 -4 -4 1012.0 948.1 -2.9 0.3 0
00 23.09 З 1 50 км 9/3 1500 м
[Cu hum Ci fib]
+2.3 -3.0 68 +1 +3 1010.4 947.7
03 23.09 ЮЗ 2 50 км 10/3 1500 м
[Cu hum Cs]
+4.4 -5.3 49 +2 +4 1009.3 947.2
06 23.09 ЮЗ 1 50 км 10/1 1500 м
[Cu hum Cs]
+5.0 -7.4 40 +5 +6 1008.6 946.6
09 23.09 штиль 0 50 км 9/3 1500 м
[Sc Ci fib]
-1.4 -6.5 68 -2 -2 1010.6 947.1 +5.5
12 23.09 СВ 1 10 км 8/3 1500 м
[Sc Ci fib]
-4.5 -7.2 81 -7 -7 1012.7 948.4
15 23.09 СВ 3 10 км 8/4 1500 м
[Cu med, cong Ci fib]
-6.2 -8.1 86 -12 -20 1014.1 949.2
18 23.09 СВ 1 10 км 6/3 1500 м
[Sc Ci fib]
-8.2 -9.2 92 -11 -11 1015.7 950.2
21 23.09 СВ 1 50 км 9/4 1500 м
[Sc Ci fib]
-6.5 -8.1 88 -9 -9 1015.8 950.8 -8.5
00 24.09 В 2 50 км 9/4 1500 м
[Sc Ac trans]
-2.1 -7.9 64 -6 -5 1015.4 951.3
03 24.09 С 1 50 км 8/3 1500 м
[Sc Ac trans]
+2.6 -8.1 45 +2 +3 1013.5 950.6
06 24.09 З 3 50 км 8/5 1500 м
[Sc Ac trans]
+4.1 -8.0 41 +1 +2 1012.2 949.7
09 24.09 З 3 50 км 9/8 1500 м
[Sc Ac trans]
+1.9 -6.5 54 -2 -2 1013.2 950.3 +5.8
12 24.09 З 5 10 км 10/10 1500 м
[Sc]
+1.2 -5.5 61 -4 -4 1013.6 950.4
15 24.09 З 3 10 км 6/3 1500 м
[Sc Ci fib]
-0.5 -6.6 63 -5 -5 1013.9 950.4
18 24.09 З 3 10 км 8/4 1500 м
[Sc Ci fib]
-1.4 -6.5 68 -6 -6 1014.1 950.4
21 24.09 З 5 20 км 10/5 1000 м
[Sc As op]
-1.7 -6.1 72 -8 -8 1014.1 950.2 -1.9
00 25.09 З 5 4000 м слабый дождь 10/10 1320 м
[Sc]
-1.4 -2.9 90 -8 -8 1013.9 950.2 -2.1
03 25.09 З 6 4000 м слабый дождь 10/10 1320 м
[Sc]
+0.7 -1.6 85 -6 -6 1012.8 949.6
06 25.09 ЮЗ 4 4000 м слабый дождь 10/10 1320 м
[Sc]
+1.4 -1.8 79 -4 -4 1012.4 949.4
09 25.09 З 4 20 км {дождь} 10/10 1260 м
[Sc]
+1.1 -1.2 85 -4 -4 1013.3 950.1 +1.6 1
12 25.09 З 5 10 км слабый снег 10/10 1260 м
[Sc]
+0.5 -0.6 92 -6 -6 1013.5 950.2
15 25.09 ЮЗ 5 10 км в посл. час снег 10/10 1260 м
[Sc]
+0.9 -0.5 90 -5 -5 1013.0 949.8
18 25.09 ЮЗ 4 10 км {снег} 10/10 1200 м
[Sc]
+0.8 -0.6 90 -5 -5 1012.5 949.4
21 25.09 З 3 4000 м слабый дождь со снегом 10/10 1320 м
[Frnb]
+0.5 -0.1 96 -4 -4 1012.1 948.9 +0.3 0.4
00 26.09 ЮЗ 3 4000 м слабый снег 10/10 1200 м
[Frnb]
+0.4 +0.1 98 -4 -4 1011.3 948.2

 

Местоположение метеостанции Усть-Нера (Якутия, Россия): широта 64.53 долгота 143.10 высота над уровнем моря 519 м.

В архиве по умолчанию представлена погода в Усть-Нере за последнюю неделю. Архивные данные за месяц целиком и за предыдущие месяцы, начиная с января 2011 года, Вы можете получить, выбрав интересующий диапазон дат из раскрывающегося списка и нажав кнопку "Ввод!".


*Определитесь, кто Вы:
робот инопланетянин человек

Внимание! Время в таблицах - всемирное. Для получения местного времени необходимо прибавить поправку, которая в Усть-Нере равна 10 ч.

Смотрите также архив погоды в соседних городах и на ближайших метеорологических станциях:

Погода в Юртах (Якутия, Россия) (82 км)
Погода в Оймяконе (Якутия, Россия) (142 км)
Погода в Делянкире (Якутия, Россия) (144 км)
Погода в Агаякане (Якутия, Россия) (150 км)
Погода в Усть-Моме (Якутия, Россия) (214 км)
Погода в Восточной (Якутия, Россия) (224 км)
Погода в Сусумане (Магаданская область, Россия) (314 км)
Погода в Иэме (Якутия, Россия) (355 км)
Погода в Томпо (Якутия, Россия) (359 км)
Погода в Теплом Ключе (Якутия, Россия) (367 км)

Пояснения к столбцам:

Ветер - указаны скорость ветра в м/с - средняя за 10 мин, порывы в срок и между сроками (в фигурных скобках) и направление, откуда дует ветер: С - северный, СВ - северо-восточный, В - восточный, ЮВ - юго-восточный, Ю - южный, ЮЗ - юго-западный, З - западный, СЗ - северо-западный.
Видимость - горизонтальная дальность видимости в метрах или километрах. При видимости от 1 до 10 км при отсутствии осадков обычно наблюдается дымка, при ухудшении видимости до 1 км и менее - туман. В сухую погоду видимость может ухудшаться дымом, пылью или мглою.
Явления - указаны атмосферные явления, наблюдавшиеся в срок или в последний час перед сроком; фигурными скобками обозначены явления, наблюдавшиеся между сроками (за 1-3 часа до срока); квадратными скобками обозначены град или гололедные отложения с указанием их диаметра в мм.
Облачность - указаны через наклонную черту общая и нижняя облачность в баллах и высота нижней границы облаков в метрах; квадратными скобками обозначены формы облаков: Ci - перистые, Cs - перисто-слоистые, Cc - перисто-кучевые, Ac - высококучевые, As - высокослоистые, Sc - слоисто-кучевые, Ns - слоисто-дождевые, Cu - кучевые, Cb - кучево-дождевые. Подробнее классификацию облаков см. в Атласе облаков (PDF).
T - Температура воздуха - температура, измеренная на высоте 2 м над землей.
Td - Температура точки росы - температура, при понижении до которой содержащийся в воздухе водяной пар достигнет насыщения.
f - Относительная влажность воздуха - влажноcть воздуха, измеренная на высоте 2 м над землей.
Te - Эффективная температура - температура, которую ощущает одетый по сезону человек в тени. Характеристика душности погоды. При расчете учитывается влияние влажности воздуха и скорости ветра на теплоощущения человека.
Tes - Эффективная температура на солнце - температура, которую ощущает человек, с поправкой на солнечный нагрев. Характеристика знойности погоды. Зависит от высоты солнца над горизонтом, облачности и скорости ветра. Ночью, в пасмурную погоду, а также при ветре 12 м/с и более поправка равна нулю.
P - Атмосферное давление - приведенное к уровню моря атмосферное давление.
Po - Атмосферное давление - измеренное на уровне метеостанции атмосферное давление.
Tmin - Минимальная температура - минимум температуры воздуха на высоте 2 м над землей.
Tmax - Максимальная температура - максимум температуры воздуха на высоте 2 м над землей.
R - Количество осадков - Количество выпавших осадков за период времени, мм. При наведении курсора мыши на число - период времени, за который выпало указанное количество осадков.
R24 - Количество осадков - Количество выпавших осадков за 24 часа, мм.
S - Снежный покров - Высота снежного покрова, см. При наведении курсора мыши на число - состояние снежного покрова и степень покрытия местности в баллах.